When you browse on this site, cookies collect data to enhance your experience and personalize the content and advertising you see.
Visit our Privacy Policy to learn more. By continuing to use the site, you agree to this use of cookies and data.

Stündliche Wetter Worcester

Heute, 4 August, Dienstag

Zeit Temperatur Niederschläge Wind Luftdruck Luftfeuchtigkeit
00:00 +11°C° 0 mm 1 m/S 759 mmHg 83%
01:00 +11°C° 0 mm 1 m/S 758 mmHg 84%
02:00 +11°C° 0 mm 1 m/S 758 mmHg 85%
03:00 +10°C° 0 mm 1 m/S 758 mmHg 86%
04:00 +11°C° 0 mm 1 m/S 758 mmHg 84%
05:00 +11°C° 0 mm 1 m/S 758 mmHg 83%
06:00 +12°C° 0 mm 1 m/S 757 mmHg 81%
07:00 +12°C° 0 mm 2 m/S 757 mmHg 80%
08:00 +13°C° 0 mm 2 m/S 757 mmHg 79%
09:00 +12°C° 0 mm 3 m/S 758 mmHg 78%
10:00 +14°C° 0 mm 4 m/S 757 mmHg 74%
11:00 +15°C° 0 mm 5 m/S 757 mmHg 70%
12:00 +17°C° 0 mm 7 m/S 756 mmHg 66%
13:00 +18°C° 0 mm 7 m/S 756 mmHg 67%
14:00 +18°C° 0 mm 7 m/S 755 mmHg 68%
15:00 +18°C° 0 mm 7 m/S 755 mmHg 68%
16:00 +18°C° 0 mm 7 m/S 755 mmHg 71%
17:00 +18°C° 0 mm 7 m/S 754 mmHg 74%
18:00 +18°C° 0 mm 7 m/S 754 mmHg 77%
19:00 +17°C° 0 mm 6 m/S 754 mmHg 78%
20:00 +17°C° 0 mm 6 m/S 754 mmHg 80%
21:00 +17°C° 0 mm 6 m/S 754 mmHg 82%
22:00 +17°C° 0 mm 6 m/S 754 mmHg 83%
23:00 +17°C° 0 mm 6 m/S 754 mmHg 84%

Morgen, 5 August, Mittwoch

Zeit Temperatur Niederschläge Wind Luftdruck Luftfeuchtigkeit
00:00 +16°C° 0 mm 6 m/S 753 mmHg 86%
01:00 +16°C° 0 mm 6 m/S 753 mmHg 88%
02:00 +16°C° 0 mm 5 m/S 753 mmHg 90%
03:00 +15°C° 0 mm 5 m/S 753 mmHg 92%
04:00 +16°C° 0 mm 5 m/S 753 mmHg 90%
05:00 +16°C° 0 mm 5 m/S 753 mmHg 88%
06:00 +17°C° 0 mm 6 m/S 753 mmHg 86%
07:00 +19°C° 0 mm 6 m/S 753 mmHg 81%
08:00 +20°C° 0 mm 7 m/S 753 mmHg 77%
09:00 +21°C° 0 mm 7 m/S 754 mmHg 72%
10:00 +22°C° 0.1 mm 7 m/S 754 mmHg 70%
11:00 +22°C° 0.1 mm 8 m/S 754 mmHg 68%
12:00 +23°C° 0.1 mm 8 m/S 753 mmHg 65%
13:00 +23°C° 0 mm 8 m/S 753 mmHg 65%
14:00 +23°C° 0 mm 8 m/S 753 mmHg 66%
15:00 +23°C° 0 mm 8 m/S 753 mmHg 66%
16:00 +22°C° 0.1 mm 7 m/S 753 mmHg 71%
17:00 +21°C° 0.1 mm 6 m/S 753 mmHg 76%
18:00 +20°C° 0.1 mm 6 m/S 753 mmHg 80%
19:00 +20°C° 0.1 mm 5 m/S 754 mmHg 83%
20:00 +19°C° 0.1 mm 5 m/S 754 mmHg 86%
21:00 +17°C° 0.1 mm 5 m/S 754 mmHg 89%
22:00 +17°C° 0.1 mm 5 m/S 754 mmHg 90%
23:00 +18°C° 0.1 mm 4 m/S 754 mmHg 92%

übermorgen, 6 August, Donnerstag

Zeit Temperatur Niederschläge Wind Luftdruck Luftfeuchtigkeit
00:00 +18°C° 0.1 mm 4 m/S 754 mmHg 94%
01:00 +18°C° 0 mm 4 m/S 755 mmHg 94%
02:00 +18°C° 0 mm 4 m/S 755 mmHg 95%
03:00 +18°C° 0 mm 3 m/S 755 mmHg 95%
04:00 +18°C° 0 mm 3 m/S 755 mmHg 95%
05:00 +18°C° 0 mm 3 m/S 755 mmHg 94%
06:00 +18°C° 0 mm 3 m/S 756 mmHg 94%
07:00 +19°C° 0 mm 4 m/S 756 mmHg 92%
08:00 +20°C° 0 mm 4 m/S 756 mmHg 89%
09:00 +20°C° 0 mm 4 m/S 757 mmHg 87%
10:00 +21°C° 0.1 mm 4 m/S 757 mmHg 84%
11:00 +22°C° 0.1 mm 5 m/S 757 mmHg 82%
12:00 +22°C° 0.1 mm 5 m/S 757 mmHg 79%
13:00 +23°C° 0.2 mm 5 m/S 757 mmHg 76%
14:00 +25°C° 0.2 mm 5 m/S 757 mmHg 72%
15:00 +26°C° 0.2 mm 5 m/S 757 mmHg 68%
16:00 +26°C° 0.2 mm 5 m/S 757 mmHg 71%
17:00 +25°C° 0.2 mm 4 m/S 757 mmHg 73%
18:00 +25°C° 0.2 mm 4 m/S 757 mmHg 75%
19:00 +22°C° 0 mm 3 m/S 757 mmHg 81%
20:00 +21°C° 0 mm 3 m/S 758 mmHg 86%
21:00 +19°C° 0 mm 2 m/S 758 mmHg 92%
22:00 +19°C° 0 mm 2 m/S 758 mmHg 93%
23:00 +18°C° 0 mm 2 m/S 758 mmHg 93%

7 August, Freitag

Zeit Temperatur Niederschläge Wind Luftdruck Luftfeuchtigkeit
00:00 +19°C° 0 mm 1 m/S 759 mmHg 94%
01:00 +18°C° 0 mm 1 m/S 759 mmHg 94%
02:00 +18°C° 0 mm 1 m/S 758 mmHg 95%
03:00 +16°C° 0 mm 1 m/S 758 mmHg 95%
04:00 +18°C° 0 mm 1 m/S 759 mmHg 94%
05:00 +18°C° 0 mm 1 m/S 759 mmHg 94%
06:00 +16°C° 0 mm 0 m/S 759 mmHg 93%
07:00 +20°C° 0 mm 1 m/S 759 mmHg 86%
08:00 +22°C° 0 mm 1 m/S 759 mmHg 79%
09:00 +24°C° 0 mm 1 m/S 759 mmHg 72%
10:00 +25°C° 0 mm 2 m/S 759 mmHg 67%
11:00 +27°C° 0 mm 2 m/S 759 mmHg 61%
12:00 +28°C° 0 mm 2 m/S 759 mmHg 56%
13:00 +29°C° 0 mm 3 m/S 758 mmHg 53%
14:00 +29°C° 0 mm 3 m/S 758 mmHg 51%
15:00 +30°C° 0 mm 3 m/S 758 mmHg 48%
16:00 +30°C° 0 mm 3 m/S 758 mmHg 52%
17:00 +29°C° 0 mm 2 m/S 758 mmHg 57%
18:00 +28°C° 0 mm 2 m/S 758 mmHg 61%
19:00 +26°C° 0 mm 2 m/S 758 mmHg 69%
20:00 +24°C° 0 mm 2 m/S 758 mmHg 77%
21:00 +21°C° 0 mm 3 m/S 758 mmHg 85%
22:00 +20°C° 0 mm 2 m/S 759 mmHg 88%
23:00 +19°C° 0 mm 2 m/S 759 mmHg 90%

8 August, Samstag

Zeit Temperatur Niederschläge Wind Luftdruck Luftfeuchtigkeit
00:00 +19°C° 0 mm 2 m/S 759 mmHg 92%
01:00 +18°C° 0 mm 2 m/S 759 mmHg 92%
02:00 +17°C° 0 mm 2 m/S 759 mmHg 93%
03:00 +16°C° 0 mm 2 m/S 759 mmHg 93%
04:00 +16°C° 0 mm 2 m/S 759 mmHg 92%
05:00 +16°C° 0 mm 3 m/S 760 mmHg 91%
06:00 +16°C° 0 mm 3 m/S 760 mmHg 91%
07:00 +18°C° 0 mm 3 m/S 760 mmHg 84%
08:00 +19°C° 0 mm 4 m/S 761 mmHg 78%
09:00 +21°C° 0 mm 4 m/S 761 mmHg 71%
10:00 +22°C° 0 mm 4 m/S 761 mmHg 67%
11:00 +22°C° 0 mm 4 m/S 761 mmHg 63%
12:00 +23°C° 0 mm 5 m/S 761 mmHg 60%
13:00 +23°C° 0 mm 5 m/S 761 mmHg 58%
14:00 +23°C° 0 mm 5 m/S 761 mmHg 56%
15:00 +23°C° 0 mm 5 m/S 761 mmHg 55%
16:00 +22°C° 0 mm 5 m/S 762 mmHg 57%
17:00 +21°C° 0 mm 5 m/S 762 mmHg 60%
18:00 +20°C° 0 mm 5 m/S 762 mmHg 62%
19:00 +17°C° 0 mm 5 m/S 762 mmHg 67%
20:00 +17°C° 0 mm 4 m/S 763 mmHg 72%
21:00 +14°C° 0 mm 4 m/S 763 mmHg 77%
22:00 +14°C° 0 mm 3 m/S 763 mmHg 80%
23:00 +13°C° 0 mm 3 m/S 763 mmHg 83%

9 August, Sonntag

Zeit Temperatur Niederschläge Wind Luftdruck Luftfeuchtigkeit
00:00 +13°C° 0 mm 3 m/S 764 mmHg 86%
01:00 +13°C° 0 mm 3 m/S 763 mmHg 87%
02:00 +13°C° 0 mm 3 m/S 763 mmHg 87%
03:00 +13°C° 0 mm 3 m/S 763 mmHg 88%
04:00 +13°C° 0 mm 3 m/S 763 mmHg 88%
05:00 +13°C° 0 mm 3 m/S 764 mmHg 88%
06:00 +13°C° 0 mm 4 m/S 764 mmHg 88%
07:00 +14°C° 0 mm 4 m/S 764 mmHg 83%
08:00 +15°C° 0 mm 4 m/S 764 mmHg 77%
09:00 +17°C° 0 mm 4 m/S 763 mmHg 72%
10:00 +17°C° 0 mm 5 m/S 763 mmHg 68%
11:00 +19°C° 0 mm 5 m/S 763 mmHg 65%
12:00 +20°C° 0 mm 5 m/S 763 mmHg 62%
13:00 +21°C° 0 mm 5 m/S 763 mmHg 60%
14:00 +21°C° 0 mm 5 m/S 762 mmHg 59%
15:00 +22°C° 0 mm 5 m/S 762 mmHg 58%
16:00 +21°C° 0 mm 5 m/S 762 mmHg 60%
17:00 +20°C° 0 mm 5 m/S 762 mmHg 63%
18:00 +20°C° 0 mm 5 m/S 762 mmHg 65%
19:00 +17°C° 0 mm 5 m/S 762 mmHg 70%
20:00 +15°C° 0 mm 4 m/S 762 mmHg 76%
21:00 +13°C° 0 mm 4 m/S 762 mmHg 81%
22:00 +13°C° 0 mm 4 m/S 761 mmHg 83%
23:00 +12°C° 0 mm 4 m/S 761 mmHg 86%
Mehr zeigen